SBI763 UWUU-UWWW

Flight info

Callsign SBI763
Flight time 0h 48m
Altitude 23000
Route GAPMA T759 EKRIM T173 NALUS
Aircraft A359/H-V/N

Departure

Time 2026-04-22 17:34
Airport Ufa International Airport (UWUU)

Arrival

Time 2026-04-22 18:22
Airport Kurumoch International Airport (UWWW)
Time Latitude Longitude Altitude Speed Heading
2026-04-22 16:54 54.56455 55.88114 378 ft 0 kts 240°
2026-04-22 17:24 54.56462 55.88134 377 ft 4 kts 238°
2026-04-22 17:25 54.56471 55.88160 376 ft 1 kts 222°
2026-04-22 17:25 54.56486 55.88174 375 ft 4 kts 198°
2026-04-22 17:25 54.56494 55.88177 375 ft 0 kts 159°
2026-04-22 17:25 54.56506 55.88165 375 ft 2 kts 149°
2026-04-22 17:26 54.56507 55.88164 375 ft 0 kts 149°
2026-04-22 17:29 54.56496 55.88176 375 ft 7 kts 150°
2026-04-22 17:29 54.56424 55.88149 380 ft 16 kts 221°
2026-04-22 17:30 54.56340 55.87928 388 ft 27 kts 240°
2026-04-22 17:30 54.56229 55.87589 392 ft 29 kts 239°
2026-04-22 17:30 54.56133 55.87298 401 ft 26 kts 242°
2026-04-22 17:30 54.56049 55.87024 408 ft 24 kts 235°
2026-04-22 17:31 54.55963 55.86789 414 ft 22 kts 240°
2026-04-22 17:31 54.55928 55.86685 415 ft 0 kts 240°
2026-04-22 17:33 54.55904 55.86610 417 ft 22 kts 241°
2026-04-22 17:33 54.55800 55.86408 419 ft 26 kts 177°
2026-04-22 17:33 54.55475 55.86702 428 ft 92 kts 151°
2026-04-22 17:33 54.54685 55.87462 448 ft 164 kts 152°
2026-04-22 17:34 54.53627 55.88503 1103 ft 179 kts 154°
2026-04-22 17:34 54.52558 55.89566 1913 ft 189 kts 145°
2026-04-22 17:34 54.51857 55.91581 2513 ft 210 kts 102°
2026-04-22 17:34 54.52097 55.94153 2906 ft 232 kts 60°
2026-04-22 17:35 54.53292 55.96134 3338 ft 248 kts 24°
2026-04-22 17:35 54.55019 55.96560 3809 ft 264 kts 346°
2026-04-22 17:35 54.56632 55.95076 4520 ft 267 kts 309°
2026-04-22 17:35 54.57429 55.92277 5384 ft 262 kts 274°
2026-04-22 17:36 54.57174 55.89251 6261 ft 259 kts 246°
2026-04-22 17:36 54.56377 55.86447 7145 ft 261 kts 240°
2026-04-22 17:36 54.55524 55.83695 7981 ft 265 kts 241°
2026-04-22 17:36 54.54691 55.80857 8826 ft 268 kts 242°
2026-04-22 17:37 54.53883 55.77941 9663 ft 271 kts 244°
2026-04-22 17:37 54.53104 55.75009 10392 ft 277 kts 244°
2026-04-22 17:37 54.52301 55.71905 10852 ft 293 kts 245°
2026-04-22 17:37 54.51452 55.68562 11281 ft 310 kts 245°
2026-04-22 17:38 54.50574 55.65073 11700 ft 326 kts 245°
2026-04-22 17:38 54.49663 55.61421 12331 ft 334 kts 246°
2026-04-22 17:38 54.48748 55.57752 13093 ft 337 kts 246°
2026-04-22 17:38 54.47832 55.54078 13831 ft 340 kts 246°
2026-04-22 17:39 54.46885 55.50286 14554 ft 344 kts 246°
2026-04-22 17:39 54.45956 55.46567 15233 ft 347 kts 246°
2026-04-22 17:39 54.44052 55.38966 16563 ft 354 kts 246°
2026-04-22 17:40 54.43073 55.35070 17216 ft 358 kts 246°
2026-04-22 17:40 54.42093 55.31163 17857 ft 361 kts 245°
2026-04-22 17:40 54.41093 55.27172 18489 ft 364 kts 245°
2026-04-22 17:40 54.40073 55.23114 19110 ft 368 kts 245°
2026-04-22 17:41 54.39053 55.19072 19714 ft 371 kts 245°
2026-04-22 17:41 54.38030 55.15034 20295 ft 374 kts 245°
2026-04-22 17:41 54.36974 55.10878 20868 ft 378 kts 246°
2026-04-22 17:41 54.35909 55.06692 21396 ft 383 kts 246°
2026-04-22 17:42 54.34843 55.02513 21914 ft 387 kts 246°
2026-04-22 17:42 54.33761 54.98270 22429 ft 391 kts 246°
2026-04-22 17:42 54.32655 54.93947 22719 ft 394 kts 246°
2026-04-22 17:42 54.31553 54.89644 22755 ft 395 kts 246°
2026-04-22 17:43 54.30459 54.85380 22762 ft 394 kts 246°
2026-04-22 17:43 54.29337 54.81021 22764 ft 394 kts 246°
2026-04-22 17:43 54.28240 54.76765 22765 ft 394 kts 246°
2026-04-22 17:43 54.27133 54.72483 22766 ft 394 kts 246°
2026-04-22 17:44 54.26015 54.68169 22766 ft 394 kts 246°
2026-04-22 17:44 54.24906 54.63899 22766 ft 394 kts 246°
2026-04-22 17:44 54.23807 54.59672 22766 ft 394 kts 246°
2026-04-22 17:44 54.22684 54.55358 22766 ft 394 kts 247°
2026-04-22 17:45 54.21625 54.51061 22766 ft 394 kts 248°
2026-04-22 17:45 54.20589 54.46730 22767 ft 394 kts 248°
2026-04-22 17:45 54.19545 54.42372 22767 ft 394 kts 248°
2026-04-22 17:45 54.18507 54.38076 22767 ft 394 kts 248°
2026-04-22 17:46 54.17445 54.33707 22767 ft 394 kts 247°
2026-04-22 17:46 54.16397 54.29398 22767 ft 394 kts 247°
2026-04-22 17:46 54.15354 54.25116 22766 ft 394 kts 247°
2026-04-22 17:46 54.14289 54.20759 22766 ft 394 kts 247°
2026-04-22 17:47 54.13245 54.16505 22766 ft 394 kts 247°
2026-04-22 17:47 54.12183 54.12192 22766 ft 394 kts 247°
2026-04-22 17:47 54.11120 54.07890 22766 ft 394 kts 247°
2026-04-22 17:47 54.10057 54.03596 22766 ft 394 kts 247°
2026-04-22 17:48 54.08985 53.99274 22766 ft 394 kts 247°
2026-04-22 17:48 54.07918 53.94986 22766 ft 394 kts 247°
2026-04-22 17:48 54.06840 53.90662 22766 ft 394 kts 247°
2026-04-22 17:48 54.05776 53.86402 22766 ft 394 kts 247°
2026-04-22 17:49 54.04691 53.82069 22766 ft 394 kts 247°
2026-04-22 17:49 54.03621 53.77805 22766 ft 394 kts 247°
2026-04-22 17:49 54.02544 53.73523 22767 ft 394 kts 247°
2026-04-22 17:49 54.01450 53.69184 22766 ft 393 kts 247°
2026-04-22 17:50 54.00370 53.64903 22763 ft 393 kts 247°
2026-04-22 17:50 53.99299 53.60648 22758 ft 393 kts 247°
2026-04-22 17:50 53.98217 53.56340 22751 ft 393 kts 247°
2026-04-22 17:50 53.97135 53.52036 22744 ft 392 kts 247°
2026-04-22 17:51 53.96047 53.47729 22736 ft 392 kts 247°
2026-04-22 17:51 53.94960 53.43438 22729 ft 392 kts 247°
2026-04-22 17:51 53.93893 53.39236 22724 ft 392 kts 247°
2026-04-22 17:51 53.92805 53.34962 22720 ft 392 kts 246°
2026-04-22 17:52 53.91713 53.30676 22717 ft 392 kts 246°
2026-04-22 17:52 53.90626 53.26416 22714 ft 392 kts 246°
2026-04-22 17:52 53.89538 53.22168 22713 ft 392 kts 246°
2026-04-22 17:52 53.88427 53.17889 22712 ft 392 kts 246°
2026-04-22 17:53 53.87322 53.13636 22712 ft 392 kts 246°
2026-04-22 17:53 53.86224 53.09399 22711 ft 392 kts 246°
2026-04-22 17:53 53.85130 53.05172 22711 ft 392 kts 246°
2026-04-22 17:53 53.84045 53.00888 22711 ft 392 kts 248°
2026-04-22 17:54 53.83122 52.96509 22711 ft 393 kts 253°
2026-04-22 17:54 53.82410 52.92081 22711 ft 393 kts 257°
2026-04-22 17:54 53.81876 52.87480 22713 ft 394 kts 260°
2026-04-22 17:54 53.81409 52.82920 22711 ft 395 kts 260°
2026-04-22 17:55 53.80946 52.78344 22711 ft 395 kts 260°
2026-04-22 17:55 53.80476 52.73736 22711 ft 396 kts 260°
2026-04-22 17:55 53.80003 52.69128 22711 ft 396 kts 260°
2026-04-22 17:55 53.79525 52.64519 22710 ft 394 kts 260°
2026-04-22 17:56 53.79053 52.59997 22513 ft 385 kts 260°
2026-04-22 17:56 53.78582 52.55505 21911 ft 386 kts 260°
2026-04-22 17:56 53.78112 52.51048 21311 ft 387 kts 260°
2026-04-22 17:56 53.77632 52.46505 20700 ft 388 kts 260°
2026-04-22 17:57 53.77152 52.41989 20093 ft 388 kts 260°
2026-04-22 17:57 53.76673 52.37499 19490 ft 388 kts 260°
2026-04-22 17:57 53.76238 52.33441 18946 ft 388 kts 259°
2026-04-22 17:57 53.75866 52.29970 18480 ft 388 kts 259°
2026-04-22 17:58 53.75526 52.26800 18054 ft 388 kts 259°
2026-04-22 17:58 53.75016 52.22073 17418 ft 387 kts 259°
2026-04-22 17:58 53.74530 52.17583 16812 ft 386 kts 259°
2026-04-22 17:58 53.74043 52.13109 16208 ft 386 kts 259°
2026-04-22 17:59 53.73558 52.08666 15602 ft 383 kts 259°
2026-04-22 17:59 53.73081 52.04316 14996 ft 362 kts 259°
2026-04-22 17:59 53.72629 52.00224 14391 ft 342 kts 259°
2026-04-22 17:59 53.72201 51.96365 13787 ft 325 kts 259°
2026-04-22 18:00 53.71793 51.92686 13183 ft 311 kts 259°
2026-04-22 18:00 53.71402 51.89167 12581 ft 299 kts 259°
2026-04-22 18:00 53.71027 51.85803 11985 ft 290 kts 259°
2026-04-22 18:00 53.70658 51.82495 11381 ft 282 kts 259°
2026-04-22 18:01 53.70300 51.79282 10778 ft 275 kts 259°
2026-04-22 18:01 53.69946 51.76125 10174 ft 269 kts 259°
2026-04-22 18:01 53.69603 51.73072 9799 ft 256 kts 259°
2026-04-22 18:01 53.69272 51.70148 9726 ft 252 kts 259°
2026-04-22 18:02 53.68940 51.67219 9462 ft 256 kts 259°
2026-04-22 18:02 53.68604 51.64270 8965 ft 263 kts 258°
2026-04-22 18:02 53.68257 51.61224 8456 ft 260 kts 258°
2026-04-22 18:02 53.67923 51.58285 7956 ft 253 kts 258°
2026-04-22 18:03 53.67600 51.55380 7449 ft 248 kts 260°
2026-04-22 18:03 53.67383 51.52530 6950 ft 245 kts 264°
2026-04-22 18:03 53.67302 51.49612 6449 ft 253 kts 269°
2026-04-22 18:03 53.67371 51.46596 5960 ft 261 kts 274°
2026-04-22 18:04 53.67544 51.43518 5727 ft 257 kts 275°
2026-04-22 18:04 53.67719 51.40620 5716 ft 245 kts 275°
2026-04-22 18:04 53.67816 51.38988 5717 ft 245 kts 275°
2026-04-22 18:04 53.67986 51.36138 5716 ft 246 kts 275°
2026-04-22 18:05 53.68113 51.33971 5715 ft 245 kts 274°
2026-04-22 18:05 53.68281 51.31054 5713 ft 244 kts 274°
2026-04-22 18:05 53.68445 51.28180 5571 ft 253 kts 274°
2026-04-22 18:05 53.68616 51.25150 5192 ft 264 kts 274°
2026-04-22 18:06 53.68792 51.22024 4813 ft 267 kts 274°
2026-04-22 18:06 53.68967 51.18918 4438 ft 269 kts 274°
2026-04-22 18:06 53.69141 51.15788 4089 ft 270 kts 274°
2026-04-22 18:06 53.69318 51.12634 4002 ft 261 kts 274°
2026-04-22 18:07 53.69489 51.09571 3997 ft 262 kts 274°
2026-04-22 18:07 53.69659 51.06498 3995 ft 262 kts 274°
2026-04-22 18:07 53.69827 51.03434 3995 ft 261 kts 274°
2026-04-22 18:07 53.69993 51.00408 3996 ft 261 kts 274°
2026-04-22 18:08 53.70159 50.97350 3994 ft 261 kts 274°
2026-04-22 18:08 53.70320 50.94288 3993 ft 263 kts 275°
2026-04-22 18:08 53.70482 50.91204 3993 ft 264 kts 276°
2026-04-22 18:08 53.70651 50.88113 3993 ft 264 kts 276°
2026-04-22 18:09 53.70822 50.84988 3815 ft 264 kts 275°
2026-04-22 18:09 53.70938 50.81922 3539 ft 263 kts 269°
2026-04-22 18:09 53.70843 50.78833 3264 ft 261 kts 265°
2026-04-22 18:09 53.70687 50.75785 3035 ft 258 kts 265°
2026-04-22 18:10 53.70534 50.72805 2998 ft 246 kts 265°
2026-04-22 18:10 53.70400 50.69998 2993 ft 234 kts 265°
2026-04-22 18:10 53.70278 50.67323 2990 ft 222 kts 266°
2026-04-22 18:10 53.70167 50.64778 2987 ft 209 kts 266°
2026-04-22 18:11 53.70062 50.62357 2992 ft 205 kts 266°
2026-04-22 18:11 53.69962 50.59948 2992 ft 205 kts 266°
2026-04-22 18:11 53.69862 50.57541 2993 ft 205 kts 266°
2026-04-22 18:11 53.69760 50.55123 2994 ft 205 kts 266°
2026-04-22 18:12 53.69659 50.52747 2994 ft 205 kts 266°
2026-04-22 18:12 53.69556 50.50337 2994 ft 205 kts 266°
2026-04-22 18:12 53.69455 50.47927 2994 ft 205 kts 266°
2026-04-22 18:12 53.69352 50.45533 2994 ft 205 kts 266°
2026-04-22 18:13 53.69249 50.43128 2994 ft 205 kts 266°
2026-04-22 18:13 53.69147 50.40742 2994 ft 205 kts 266°
2026-04-22 18:13 53.69041 50.38332 2994 ft 205 kts 266°
2026-04-22 18:13 53.68936 50.35926 2994 ft 205 kts 267°
2026-04-22 18:14 53.68843 50.33780 2994 ft 205 kts 265°
2026-04-22 18:14 53.68735 50.31289 2994 ft 205 kts 265°
2026-04-22 18:14 53.68628 50.28878 2994 ft 205 kts 265°
2026-04-22 18:14 53.68520 50.26484 2994 ft 205 kts 266°
2026-04-22 18:15 53.68411 50.24060 2986 ft 205 kts 266°
2026-04-22 18:15 53.68301 50.21627 2742 ft 208 kts 265°
2026-04-22 18:15 53.68190 50.19180 2491 ft 209 kts 265°
2026-04-22 18:15 53.68078 50.16680 2237 ft 211 kts 265°
2026-04-22 18:16 53.67968 50.14206 1991 ft 211 kts 266°
2026-04-22 18:16 53.67859 50.11752 1903 ft 203 kts 265°
2026-04-22 18:16 53.67744 50.09448 1900 ft 189 kts 259°
2026-04-22 18:16 53.67129 50.07677 1862 ft 168 kts 209°
2026-04-22 18:17 53.66077 50.07521 1879 ft 153 kts 159°
2026-04-22 18:17 53.65112 50.08300 1903 ft 149 kts 150°
2026-04-22 18:17 53.64212 50.09096 1892 ft 145 kts 152°
2026-04-22 18:17 53.63293 50.09818 1895 ft 144 kts 155°
2026-04-22 18:18 53.62373 50.10486 1890 ft 144 kts 156°
2026-04-22 18:18 53.61445 50.11101 1896 ft 144 kts 158°
2026-04-22 18:18 53.60508 50.11681 1894 ft 144 kts 159°
2026-04-22 18:18 53.59566 50.12248 1893 ft 144 kts 159°
2026-04-22 18:19 53.58613 50.12816 1757 ft 144 kts 159°
2026-04-22 18:19 53.57673 50.13376 1588 ft 143 kts 159°
2026-04-22 18:19 53.56743 50.13930 1418 ft 143 kts 159°
2026-04-22 18:19 53.55828 50.14478 1257 ft 142 kts 159°
2026-04-22 18:20 53.54888 50.15039 1086 ft 142 kts 159°
2026-04-22 18:20 53.53959 50.15593 914 ft 142 kts 159°
2026-04-22 18:20 53.53047 50.16139 751 ft 141 kts 159°
2026-04-22 18:20 53.52137 50.16661 575 ft 139 kts 160°
2026-04-22 18:21 53.51259 50.17187 491 ft 125 kts 159°
2026-04-22 18:21 53.50527 50.17618 491 ft 92 kts 160°
2026-04-22 18:21 53.50042 50.17900 491 ft 60 kts 160°
2026-04-22 18:21 53.49663 50.18119 491 ft 56 kts 158°
2026-04-22 18:22 53.49424 50.18260 491 ft 22 kts 162°
2026-04-22 18:22 53.49289 50.18199 491 ft 21 kts 240°
2026-04-22 18:22 53.49303 50.17961 491 ft 15 kts 313°
2026-04-22 18:22 53.49327 50.17926 491 ft 4 kts 321°
2026-04-22 18:23 53.49353 50.17903 491 ft 6 kts 336°
2026-04-22 18:23 53.49416 50.17862 490 ft 13 kts 341°
2026-04-22 18:23 53.49527 50.17802 491 ft 19 kts 339°
2026-04-22 18:24 53.49831 50.17620 491 ft 24 kts 341°
2026-04-22 18:24 53.50000 50.17523 491 ft 26 kts 340°
2026-04-22 18:24 53.50359 50.17311 491 ft 28 kts 341°
2026-04-22 18:25 53.50554 50.17196 491 ft 30 kts 340°
2026-04-22 18:25 53.50753 50.17079 491 ft 31 kts 338°
2026-04-22 18:25 53.50890 50.16813 491 ft 31 kts 303°
2026-04-22 18:26 53.51110 50.16253 491 ft 19 kts 303°
2026-04-22 18:26 53.51149 50.16126 491 ft 7 kts 262°
2026-04-22 18:26 53.51147 50.16076 491 ft 2 kts 284°
2026-04-22 18:26 53.51155 50.16053 491 ft 1 kts 311°
2026-04-22 18:27 53.51168 50.16039 491 ft 2 kts 332°
2026-04-22 18:27 53.51189 50.16021 491 ft 0 kts 333°